CW4591 Weather Reports


time (UTC)temp
F
wind
direction
speed
knots
gust
knots
rain 1hr
in
rain 24hr
in
rain mn
in
humidity
%
barometer
mb
20260507014548 49 239 3.5 9.6 0.00 0.00 0.00 39 1008.6
20260507013043 49 246 4.3 9.6 0.00 0.00 0.00 39 1008.6
20260507011538 50 288 6.1 12.2 0.00 0.00 0.00 37 1008.5
20260507010034 49 272 1.7 10.4 0.00 0.00 0.00 40 1008.5
20260507004531 49 267 3.5 14.8 0.00 0.00 0.00 40 1008.3
20260507003030 49 254 8.7 16.5 0.00 0.00 0.00 39 1008.2
20260507001528 49 221 2.6 12.2 0.00 0.00 0.00 40 1008.2
20260507000031 49 270 6.1 12.2 0.00 0.00 0.00 39 1008.1
20260506234529 50 273 4.3 13.0 0.00 0.00 0.00 37 1008.1
20260506233029 51 359 6.1 12.2 0.00 0.00 0.00 37 1008.0
20260506231526 51 237 2.6 8.7 0.00 0.00 0.00 37 1008.1
20260506230024 50 283 4.3 13.0 0.00 0.00 0.00 38 1008.1
20260506224523 50 245 3.5 10.4 0.00 0.00 0.00 40 1008.2
20260506223021 50 278 3.5 7.8 0.00 0.00 0.00 42 1008.1
20260506221518 49 287 2.6 7.8 0.00 0.00 0.00 42 1008.2
20260506220018 49 249 4.3 8.7 0.00 0.00 0.00 42 1008.2
20260506214518 48 317 1.7 7.0 0.00 0.00 0.00 43 1008.1
20260506213016 48 265 6.1 10.4 0.00 0.00 0.00 45 1008.1
20260506211515 49 187 6.1 10.4 0.00 0.00 0.00 46 1008.1
20260506210015 48 181 2.6 7.8 0.00 0.00 0.00 47 1008.0
20260506204512 48 153 3.5 8.7 0.00 0.00 0.00 48 1008.0
20260506203011 48 207 3.5 8.7 0.00 0.00 0.00 49 1008.0
20260506201510 48 213 4.3 8.7 0.00 0.00 0.00 47 1008.0
20260506200009 48 108 6.1 10.4 0.00 0.00 0.00 49 1007.9
20260506194511 47 138 0.9 7.8 0.00 0.00 0.00 52 1008.0
20260506193005 46 197 4.3 8.7 0.00 0.00 0.00 51 1008.1
20260506191505 46 194 4.3 8.7 0.00 0.00 0.00 51 1008.1
20260506190003 46 160 4.3 7.8 0.00 0.00 0.00 53 1008.1
20260506184502 46 179 2.6 9.6 0.00 0.00 0.00 53 1008.2
20260506183102 45 242 3.5 7.8 0.00 0.00 0.00 53 1008.2
20260506181557 45 262 0.9 5.2 0.00 0.00 0.00 55 1008.2
20260506180104 44 232 2.6 4.3 0.00 0.00 0.00 56 1008.3
20260506174551 43 250 0.9 2.6 0.00 0.00 0.00 59 1008.3
20260506173106 43 359 1.7 7.8 0.00 0.00 0.00 58 1008.3
20260506171552 42 283 0.9 3.5 0.00 0.00 0.00 62 1008.3
20260506170046 42 246 1.7 6.1 0.00 0.00 0.00 61 1008.2
20260506164545 42 209 1.7 6.1 0.00 0.00 0.00 62 1008.1
20260506163048 41 220 1.7 5.2 0.00 0.00 0.00 61 1007.9
20260506161552 41 228 0.9 4.3 0.00 0.00 0.00 66 1007.9
20260506160039 41 256 0.0 2.6 0.00 0.00 0.00 64 1007.9
20260506154538 40 201 0.9 7.0 0.00 0.00 0.00 64 1007.7
20260506153038 40 179 0.0 6.1 0.00 0.00 0.00 64 1007.6
20260506151535 39 210 1.7 6.1 0.00 0.00 0.00 67 1007.4
20260506150036 37 201 2.6 7.8 0.00 0.00 0.00 71 1007.4
20260506144532 36 21 0.0 0.0 0.00 0.00 0.00 75 1007.3
20260506143031 36 21 0.0 2.6 0.00 0.00 0.00 74 1007.2
20260506141528 36 21 0.9 2.6 0.00 0.00 0.00 73 1007.1
20260506140027 35 206 1.7 6.1 0.00 0.00 0.00 72 1007.0
20260506134600 35 168 0.9 4.3 0.00 0.00 0.00 74 1007.0
20260506133024 35 201 0.9 4.3 0.00 0.00 0.00 74 1006.9
20260506131527 34 216 1.7 3.5 0.00 0.00 0.00 73 1006.9
20260506130020 35 330 0.0 3.5 0.00 0.00 0.00 72 1006.9
20260506124518 35 233 0.0 0.0 0.00 0.00 0.00 71 1006.8
20260506123014 36 231 0.0 0.0 0.00 0.00 0.00 68 1006.8
20260506121512 37 232 2.6 3.5 0.00 0.00 0.00 66 1006.5
20260506120012 38 359 0.0 3.5 0.00 0.00 0.00 66 1006.4
20260506114519 39 212 2.6 4.3 0.00 0.00 0.00 58 1006.1
20260506113008 40 271 0.0 5.2 0.00 0.00 0.00 56 1006.1
20260506111506 40 206 2.6 7.0 0.00 0.00 0.00 59 1006.0
20260506110011 40 224 1.7 7.0 0.00 0.00 0.00 62 1005.9
20260506104504 40 197 3.5 6.1 0.00 0.00 0.00 63 1005.9
20260506103009 39 220 3.5 7.0 0.00 0.00 0.00 63 1005.9
20260506101600 38 242 1.7 5.2 0.00 0.00 0.00 64 1005.8
20260506100101 36 177 0.9 4.3 0.00 0.00 0.00 67 1005.5
20260506094554 37 299 0.0 1.7 0.00 0.00 0.00 66 1005.6
20260506093055 37 299 0.0 0.0 0.00 0.00 0.00 67 1005.3
20260506091548 38 359 0.0 1.7 0.00 0.00 0.00 63 1005.2
20260506090045 38 299 0.0 3.5 0.00 0.00 0.00 60 1004.9
20260506084542 39 247 0.0 1.7 0.00 0.00 0.00 64 1004.6
20260506083042 40 248 0.0 2.6 0.00 0.00 0.00 57 1004.6
20260506081543 40 359 3.5 7.0 0.00 0.00 0.00 55 1004.2
20260506073032 43 359 0.0 3.5 0.00 0.00 0.00 52 1003.6
20260506071526 43 239 2.6 6.1 0.00 0.00 0.00 48 1003.5
20260506061533 44 207 0.9 4.3 0.00 0.00 0.00 48 1003.1
20260506044519 46 359 7.0 13.9 0.00 0.00 0.00 45 1002.1
20260506043017 46 213 3.5 10.4 0.00 0.00 0.00 47 1002.4
20260506041514 46 195 3.5 10.4 0.00 0.00 0.00 47 1002.4
20260506040018 47 182 5.2 13.9 0.00 0.00 0.00 47 1002.3
20260506034512 48 193 4.3 13.0 0.00 0.00 0.00 43 1002.3
20260506033015 48 209 5.2 9.6 0.00 0.00 0.00 42 1002.2
20260506031511 47 202 4.3 13.0 0.00 0.00 0.00 44 1002.1
20260506030012 47 201 7.0 13.0 0.00 0.00 0.00 46 1002.1
20260506024525 48 197 6.1 16.5 0.00 0.00 0.00 44 1001.9
20260506023008 49 182 3.5 11.3 0.00 0.00 0.00 42 1001.8
20260506021510 50 14 3.5 13.9 0.00 0.00 0.00 39 1001.7
20260506020006 51 294 7.8 15.6 0.00 0.00 0.00 35 1001.7